Regional Weather Roundup
Issued by NWS

Home | Current Version | Previous Version | Graphics & Text | Print | Product List | Glossary On
Versions: 1 2 3 4 5 6 7 8 9 10 11 12 13 14 15 16 17 18 19 20 21 22 23 24 25 26 27 28 29 30 31 32 33 34 35 36 37 38 39 40 41 42 43 44 45 46 47 48 49 50
000
ASUS43 KBIS 291410
RWRND

NORTH DAKOTA REGIONAL WEATHER ROUNDUP
NATIONAL WEATHER SERVICE BISMARCK ND
900 AM CDT FRI APR 29 2016

NOTE: "FAIR" INDICATES FEW OR NO CLOUDS BELOW 12,000 FEET WITH NO
SIGNIFICANT WEATHER AND/OR OBSTRUCTIONS TO VISIBILITY.


NDZ001>003-009>011-017-291500-
NORTHWEST NORTH DAKOTA

CITY           SKY/WX    TMP DP  RH WIND       PRES   REMARKS
WILLISTON      MOSUNNY   45  28  51 VRB5      30.17F
MINOT          SUNNY     45  21  38 N6        30.21R
MINOT AFB      SUNNY     40  22  48 NE3       30.20S
$$

NDZ018>021-031>035-040>046-291500-
SOUTHWEST NORTH DAKOTA

CITY           SKY/WX    TMP DP  RH WIND       PRES   REMARKS
BISMARCK       CLOUDY    43  32  65 E6        30.20R
DICKINSON      CLOUDY    40  30  67 E9        30.13R
GARRISON         N/A     46  26  45 E8        30.19R
HETTINGER ARPT CLOUDY    40  34  79 E6        30.15R
$$

NDZ004>008-012>016-024-026-027-054-291500-
NORTHEAST NORTH DAKOTA

CITY           SKY/WX    TMP DP  RH WIND       PRES   REMARKS
GRAND FORKS    CLOUDY    45  32  60 NE8       30.22R
GRND FRKS AFB  MOSUNNY   43  30  60 NE7       30.22S
DEVILS LAKE    MOSUNNY   45  29  53 E12       30.22S
$$

NDZ022-023-025-028>030-036>039-047>053-291500-
SOUTHEAST NORTH DAKOTA

CITY           SKY/WX    TMP DP  RH WIND       PRES   REMARKS
FARGO          SUNNY     46  37  71 CALM      30.19R
JAMESTOWN      SUNNY     45  30  55 NE9       30.18R
$$





USA.gov is the U.S. government's official web portal to all federal, state and local government web resources and services.